| time (UTC) | temp F | wind direction | speed knots | gust knots | rain 1hr in | rain 24hr in | rain mn in | humidity % | barometer mb |
| 20260507071528 | 46 | 190 | 2.6 | 5.2 | 0.00 | 0.00 | 0.00 | 58 | 1014.5 |
| 20260507070806 | 46 | 182 | 2.6 | 3.5 | 0.00 | 0.00 | 0.00 | 58 | 1014.6 |
| 20260507070307 | 46 | 181 | 2.6 | 5.2 | 0.00 | 0.00 | 0.00 | 58 | 1014.6 |
| 20260507065806 | 46 | 178 | 2.6 | 5.2 | 0.00 | 0.00 | 0.00 | 58 | 1014.7 |
| 20260507065307 | 46 | 190 | 2.6 | 5.2 | 0.00 | 0.00 | 0.00 | 58 | 1014.8 |
| 20260507064807 | 46 | 201 | 2.6 | 5.2 | 0.00 | 0.00 | 0.00 | 58 | 1014.9 |
| 20260507064308 | 46 | 199 | 2.6 | 6.1 | 0.00 | 0.00 | 0.00 | 58 | 1014.8 |
| 20260507063806 | 46 | 200 | 2.6 | 6.1 | 0.00 | 0.00 | 0.00 | 58 | 1014.8 |
| 20260507063307 | 46 | 192 | 2.6 | 5.2 | 0.00 | 0.00 | 0.00 | 59 | 1014.9 |
| 20260507062804 | 46 | 196 | 2.6 | 5.2 | 0.00 | 0.00 | 0.00 | 60 | 1014.9 |
| 20260507062257 | 45 | 197 | 2.6 | 5.2 | 0.00 | 0.00 | 0.00 | 61 | 1015.0 |
| 20260507061753 | 44 | 198 | 2.6 | 5.2 | 0.00 | 0.00 | 0.00 | 63 | 1015.0 |
| 20260507061246 | 44 | 216 | 2.6 | 4.3 | 0.00 | 0.00 | 0.00 | 67 | 1015.0 |
| 20260507060741 | 44 | 227 | 1.7 | 3.5 | 0.00 | 0.00 | 0.00 | 68 | 1015.0 |
| 20260507060715 | 44 | 236 | 0.9 | 3.5 | 0.00 | 0.00 | 0.00 | 71 | 1015.1 |
| 20260507055728 | 44 | 322 | 0.0 | 0.9 | 0.00 | 0.00 | 0.00 | 76 | 1015.1 |
| 20260507055223 | 44 | 322 | 0.0 | 0.0 | 0.00 | 0.00 | 0.00 | 76 | 1015.1 |
| 20260507054716 | 44 | 322 | 0.0 | 0.0 | 0.00 | 0.00 | 0.00 | 75 | 1015.1 |
| 20260507054210 | 44 | 321 | 0.0 | 1.7 | 0.00 | 0.00 | 0.00 | 74 | 1015.2 |
| 20260507053704 | 44 | 321 | 0.0 | 1.7 | 0.00 | 0.00 | 0.00 | 72 | 1015.2 |
| 20260507053158 | 44 | 321 | 0.0 | 0.0 | 0.00 | 0.00 | 0.00 | 71 | 1015.3 |
| 20260507052922 | 44 | 321 | 0.0 | 0.0 | 0.00 | 0.00 | 0.00 | 71 | 1015.3 |
| 20260507052403 | 44 | 321 | 0.0 | 0.0 | 0.00 | 0.00 | 0.00 | 69 | 1015.3 |
| 20260507051641 | 44 | 322 | 0.0 | 0.0 | 0.00 | 0.00 | 0.00 | 68 | 1015.3 |
| 20260507051405 | 44 | 317 | 0.0 | 0.0 | 0.00 | 0.00 | 0.00 | 68 | 1015.2 |
| 20260507050628 | 44 | 315 | 0.0 | 0.9 | 0.00 | 0.00 | 0.00 | 68 | 1015.2 |
| 20260507050341 | 44 | 315 | 0.0 | 0.9 | 0.00 | 0.00 | 0.00 | 68 | 1015.2 |
| 20260507045616 | 44 | 310 | 0.0 | 0.0 | 0.00 | 0.00 | 0.00 | 68 | 1015.3 |
| 20260507045109 | 44 | 309 | 0.0 | 0.9 | 0.00 | 0.00 | 0.00 | 66 | 1015.3 |
| 20260507044834 | 44 | 303 | 0.0 | 0.9 | 0.00 | 0.00 | 0.00 | 67 | 1015.2 |
| 20260507044325 | 44 | 302 | 0.0 | 0.0 | 0.00 | 0.00 | 0.00 | 66 | 1015.2 |
| 20260507043550 | 44 | 325 | 0.0 | 0.9 | 0.00 | 0.00 | 0.00 | 65 | 1015.3 |
| 20260507043045 | 44 | 323 | 0.0 | 1.7 | 0.00 | 0.00 | 0.00 | 65 | 1015.3 |
| 20260507042539 | 44 | 323 | 0.0 | 1.7 | 0.00 | 0.00 | 0.00 | 65 | 1015.2 |
| 20260507042033 | 44 | 323 | 0.0 | 0.9 | 0.00 | 0.00 | 0.00 | 65 | 1015.3 |
| 20260507041528 | 44 | 325 | 0.0 | 0.0 | 0.00 | 0.00 | 0.00 | 64 | 1015.3 |
| 20260507041021 | 44 | 325 | 0.0 | 0.0 | 0.00 | 0.00 | 0.00 | 63 | 1015.3 |
| 20260507040515 | 45 | 325 | 0.0 | 0.0 | 0.00 | 0.00 | 0.00 | 61 | 1015.3 |
| 20260507040009 | 45 | 325 | 0.0 | 0.0 | 0.00 | 0.00 | 0.00 | 62 | 1015.2 |
| 20260507035730 | 45 | 325 | 0.0 | 0.0 | 0.00 | 0.00 | 0.00 | 60 | 1015.2 |
| 20260507034959 | 45 | 325 | 0.0 | 0.0 | 0.00 | 0.00 | 0.00 | 59 | 1015.2 |
| 20260507034451 | 46 | 325 | 0.0 | 0.0 | 0.00 | 0.00 | 0.00 | 58 | 1015.2 |
| 20260507033945 | 46 | 325 | 0.0 | 0.0 | 0.00 | 0.00 | 0.00 | 57 | 1015.3 |
| 20260507033439 | 46 | 325 | 0.0 | 0.0 | 0.00 | 0.00 | 0.00 | 56 | 1015.4 |
| 20260507032935 | 46 | 325 | 0.0 | 0.0 | 0.00 | 0.00 | 0.00 | 56 | 1015.3 |
| 20260507032427 | 46 | 324 | 0.0 | 0.0 | 0.00 | 0.00 | 0.00 | 55 | 1015.4 |
| 20260507031921 | 46 | 316 | 0.0 | 0.0 | 0.00 | 0.00 | 0.00 | 56 | 1015.4 |
| 20260507031415 | 47 | 325 | 0.0 | 0.0 | 0.00 | 0.00 | 0.00 | 55 | 1015.4 |
| 20260507030908 | 47 | 320 | 0.0 | 0.0 | 0.00 | 0.00 | 0.00 | 55 | 1015.4 |
| 20260507030402 | 47 | 323 | 0.0 | 0.0 | 0.00 | 0.00 | 0.00 | 51 | 1015.4 |
| 20260507025856 | 47 | 310 | 0.0 | 0.0 | 0.00 | 0.00 | 0.00 | 50 | 1015.3 |
| 20260507025351 | 47 | 325 | 0.0 | 0.0 | 0.00 | 0.00 | 0.00 | 50 | 1015.4 |
| 20260507024847 | 47 | 326 | 0.0 | 0.0 | 0.00 | 0.00 | 0.00 | 50 | 1015.3 |
| 20260507024346 | 48 | 326 | 0.0 | 0.0 | 0.00 | 0.00 | 0.00 | 51 | 1015.3 |
| 20260507023849 | 48 | 326 | 0.0 | 0.0 | 0.00 | 0.00 | 0.00 | 50 | 1015.3 |
| 20260507023349 | 48 | 326 | 0.0 | 0.0 | 0.00 | 0.00 | 0.00 | 50 | 1015.3 |
| 20260507022845 | 49 | 326 | 0.0 | 0.0 | 0.00 | 0.00 | 0.00 | 48 | 1015.3 |
| 20260507022345 | 49 | 326 | 0.0 | 0.0 | 0.00 | 0.00 | 0.00 | 48 | 1015.2 |
| 20260507021847 | 49 | 326 | 0.0 | 0.0 | 0.00 | 0.00 | 0.00 | 48 | 1015.1 |
| 20260507021342 | 49 | 326 | 0.0 | 0.0 | 0.00 | 0.00 | 0.00 | 48 | 1015.0 |
| 20260507021328 | 50 | 326 | 0.0 | 0.0 | 0.00 | 0.00 | 0.00 | 46 | 1015.0 |
| 20260507020337 | 50 | 326 | 0.0 | 0.0 | 0.00 | 0.00 | 0.00 | 45 | 1014.9 |
| 20260507015837 | 50 | 326 | 0.0 | 0.0 | 0.00 | 0.00 | 0.00 | 45 | 1014.9 |
| 20260507015337 | 51 | 326 | 0.0 | 0.0 | 0.00 | 0.00 | 0.00 | 44 | 1014.7 |
| 20260507014835 | 51 | 326 | 0.0 | 0.0 | 0.00 | 0.00 | 0.00 | 44 | 1014.7 |
| 20260507014555 | 51 | 326 | 0.0 | 0.0 | 0.00 | 0.00 | 0.00 | 44 | 1014.7 |
| 20260507014057 | 52 | 326 | 0.0 | 0.0 | 0.00 | 0.00 | 0.00 | 43 | 1014.7 |
| 20260507013333 | 52 | 326 | 0.0 | 0.9 | 0.00 | 0.00 | 0.00 | 43 | 1014.7 |
| 20260507012833 | 52 | 326 | 0.0 | 1.7 | 0.00 | 0.00 | 0.00 | 43 | 1014.7 |
| 20260507012338 | 52 | 326 | 0.9 | 1.7 | 0.00 | 0.00 | 0.00 | 42 | 1014.6 |
| 20260507011838 | 53 | 326 | 0.0 | 1.7 | 0.00 | 0.00 | 0.00 | 41 | 1014.6 |
| 20260507011332 | 53 | 326 | 0.9 | 1.7 | 0.00 | 0.00 | 0.00 | 41 | 1014.7 |
| 20260507010829 | 53 | 326 | 0.9 | 3.5 | 0.00 | 0.00 | 0.00 | 41 | 1014.6 |
| 20260507010537 | 54 | 327 | 0.9 | 3.5 | 0.00 | 0.00 | 0.00 | 40 | 1014.6 |
| 20260507005814 | 54 | 327 | 1.7 | 2.6 | 0.00 | 0.00 | 0.00 | 40 | 1014.6 |
| 20260507005308 | 54 | 327 | 1.7 | 5.2 | 0.00 | 0.00 | 0.00 | 40 | 1014.6 |
| 20260507005025 | 55 | 327 | 1.7 | 5.2 | 0.00 | 0.00 | 0.00 | 40 | 1014.7 |
| 20260507004256 | 55 | 326 | 2.6 | 7.0 | 0.00 | 0.00 | 0.00 | 40 | 1014.7 |
| 20260507003751 | 55 | 327 | 3.5 | 7.8 | 0.00 | 0.00 | 0.00 | 40 | 1014.6 |
| 20260507003251 | 56 | 328 | 3.5 | 7.8 | 0.00 | 0.00 | 0.00 | 40 | 1014.6 |
| 20260507002751 | 56 | 286 | 4.3 | 9.6 | 0.00 | 0.00 | 0.00 | 39 | 1014.6 |
| 20260507002249 | 56 | 327 | 5.2 | 9.6 | 0.00 | 0.00 | 0.00 | 39 | 1014.5 |
| 20260507001749 | 57 | 330 | 4.3 | 9.6 | 0.00 | 0.00 | 0.00 | 38 | 1014.5 |
| 20260507001248 | 57 | 319 | 3.5 | 7.0 | 0.00 | 0.00 | 0.00 | 40 | 1014.5 |
| 20260507000748 | 57 | 309 | 2.6 | 5.2 | 0.00 | 0.00 | 0.00 | 38 | 1014.4 |
| 20260507000247 | 57 | 315 | 2.6 | 7.8 | 0.00 | 0.00 | 0.00 | 40 | 1014.4 |
| 20260506235747 | 57 | 323 | 3.5 | 8.7 | 0.00 | 0.00 | 0.00 | 39 | 1014.4 |
| 20260506235247 | 57 | 44 | 5.2 | 11.3 | 0.00 | 0.00 | 0.00 | 38 | 1014.4 |
| 20260506234744 | 57 | 321 | 5.2 | 11.3 | 0.00 | 0.00 | 0.00 | 38 | 1014.4 |
| 20260506234246 | 57 | 348 | 5.2 | 11.3 | 0.00 | 0.00 | 0.00 | 40 | 1014.4 |
| 20260506233744 | 57 | 286 | 7.0 | 12.2 | 0.00 | 0.00 | 0.00 | 37 | 1014.5 |
| 20260506233245 | 57 | 300 | 7.0 | 12.2 | 0.00 | 0.00 | 0.00 | 37 | 1014.5 |
| 20260506232746 | 58 | 319 | 7.0 | 11.3 | 0.00 | 0.00 | 0.00 | 37 | 1014.5 |
| 20260506232245 | 58 | 307 | 6.1 | 12.2 | 0.00 | 0.00 | 0.00 | 37 | 1014.6 |
| 20260506231745 | 58 | 326 | 6.1 | 12.2 | 0.00 | 0.00 | 0.00 | 38 | 1014.6 |
| 20260506231515 | 58 | 317 | 7.0 | 11.3 | 0.00 | 0.00 | 0.00 | 37 | 1014.6 |
| 20260506230745 | 58 | 308 | 6.1 | 10.4 | 0.00 | 0.00 | 0.00 | 37 | 1014.7 |
| 20260506230244 | 58 | 315 | 5.2 | 11.3 | 0.00 | 0.00 | 0.00 | 39 | 1014.8 |
| 20260506225745 | 57 | 281 | 5.2 | 11.3 | 0.00 | 0.00 | 0.00 | 40 | 1014.7 |
| 20260506225245 | 57 | 267 | 7.0 | 13.9 | 0.00 | 0.00 | 0.00 | 38 | 1014.9 |
| 20260506225006 | 58 | 304 | 7.0 | 13.9 | 0.00 | 0.00 | 0.00 | 38 | 1014.8 |
| 20260506224245 | 58 | 281 | 7.0 | 12.2 | 0.00 | 0.00 | 0.00 | 39 | 1014.8 |
| 20260506224003 | 57 | 301 | 7.8 | 14.8 | 0.00 | 0.00 | 0.00 | 40 | 1014.8 |
| 20260506223246 | 57 | 299 | 7.0 | 14.8 | 0.00 | 0.00 | 0.00 | 37 | 1014.8 |
| 20260506222747 | 58 | 306 | 5.2 | 11.3 | 0.00 | 0.00 | 0.00 | 40 | 1014.7 |
| 20260506222511 | 57 | 355 | 5.2 | 11.3 | 0.00 | 0.00 | 0.00 | 40 | 1014.8 |
| 20260506221745 | 57 | 295 | 5.2 | 11.3 | 0.00 | 0.00 | 0.00 | 41 | 1014.9 |
| 20260506221244 | 57 | 28 | 6.1 | 11.3 | 0.00 | 0.00 | 0.00 | 39 | 1014.8 |
| 20260506221005 | 57 | 313 | 7.8 | 13.9 | 0.00 | 0.00 | 0.00 | 39 | 1014.9 |
| 20260506220241 | 57 | 311 | 7.8 | 13.9 | 0.00 | 0.00 | 0.00 | 40 | 1014.7 |
| 20260506215952 | 57 | 288 | 7.0 | 13.0 | 0.00 | 0.00 | 0.00 | 39 | 1014.7 |
| 20260506215232 | 57 | 272 | 7.8 | 13.0 | 0.00 | 0.00 | 0.00 | 36 | 1014.8 |
| 20260506214726 | 58 | 313 | 7.8 | 13.0 | 0.00 | 0.00 | 0.00 | 38 | 1014.8 |
| 20260506214221 | 58 | 307 | 7.8 | 13.0 | 0.00 | 0.00 | 0.00 | 39 | 1014.8 |
| 20260506213714 | 58 | 285 | 6.1 | 12.2 | 0.00 | 0.00 | 0.00 | 38 | 1015.0 |
| 20260506213209 | 58 | 322 | 6.1 | 10.4 | 0.00 | 0.00 | 0.00 | 41 | 1015.0 |
| 20260506212703 | 58 | 300 | 7.8 | 13.0 | 0.00 | 0.00 | 0.00 | 37 | 1015.0 |
| 20260506212202 | 58 | 340 | 7.0 | 13.0 | 0.00 | 0.00 | 0.00 | 40 | 1015.1 |
| 20260506211702 | 57 | 309 | 7.8 | 14.8 | 0.00 | 0.00 | 0.00 | 42 | 1015.1 |
| 20260506211202 | 57 | 295 | 7.8 | 14.8 | 0.00 | 0.00 | 0.00 | 40 | 1015.2 |
| 20260506210702 | 56 | 290 | 7.0 | 13.0 | 0.00 | 0.00 | 0.00 | 41 | 1015.3 |
| 20260506210203 | 56 | 274 | 7.0 | 13.0 | 0.00 | 0.00 | 0.00 | 39 | 1015.3 |
| 20260506205926 | 57 | 17 | 7.0 | 13.0 | 0.00 | 0.00 | 0.00 | 40 | 1015.4 |
| 20260506205202 | 57 | 347 | 5.2 | 10.4 | 0.00 | 0.00 | 0.00 | 43 | 1015.5 |
| 20260506204704 | 56 | 313 | 6.1 | 10.4 | 0.00 | 0.00 | 0.00 | 42 | 1015.4 |
| 20260506204209 | 56 | 290 | 7.0 | 11.3 | 0.00 | 0.00 | 0.00 | 41 | 1015.3 |
| 20260506203702 | 56 | 337 | 7.8 | 14.8 | 0.00 | 0.00 | 0.00 | 40 | 1015.3 |
| 20260506203202 | 57 | 321 | 7.0 | 14.8 | 0.00 | 0.00 | 0.00 | 40 | 1015.3 |
| 20260506202702 | 57 | 300 | 5.2 | 10.4 | 0.00 | 0.00 | 0.00 | 41 | 1015.4 |
| 20260506202424 | 57 | 348 | 6.1 | 12.2 | 0.00 | 0.00 | 0.00 | 41 | 1015.5 |
| 20260506201701 | 56 | 301 | 7.8 | 13.0 | 0.00 | 0.00 | 0.00 | 41 | 1015.5 |
| 20260506201200 | 56 | 288 | 8.7 | 13.0 | 0.00 | 0.00 | 0.00 | 40 | 1015.6 |
| 20260506200918 | 56 | 273 | 7.8 | 13.0 | 0.00 | 0.00 | 0.00 | 42 | 1015.6 |
| 20260506200153 | 56 | 327 | 7.0 | 11.3 | 0.00 | 0.00 | 0.00 | 41 | 1015.6 |
| 20260506195647 | 57 | 327 | 7.0 | 12.2 | 0.00 | 0.00 | 0.00 | 43 | 1015.7 |
| 20260506195358 | 56 | 339 | 7.0 | 13.9 | 0.00 | 0.00 | 0.00 | 40 | 1015.8 |
| 20260506194857 | 56 | 282 | 7.8 | 13.9 | 0.00 | 0.00 | 0.00 | 42 | 1015.8 |
| 20260506194129 | 56 | 347 | 7.0 | 11.3 | 0.00 | 0.00 | 0.00 | 42 | 1015.7 |
| 20260506193624 | 56 | 293 | 6.1 | 10.4 | 0.00 | 0.00 | 0.00 | 42 | 1015.8 |
| 20260506193117 | 57 | 313 | 7.0 | 13.0 | 0.00 | 0.00 | 0.00 | 46 | 1015.9 |
| 20260506192611 | 56 | 349 | 7.0 | 13.9 | 0.00 | 0.00 | 0.00 | 42 | 1015.8 |
| 20260506192105 | 56 | 323 | 7.0 | 13.9 | 0.00 | 0.00 | 0.00 | 43 | 1015.8 |
| 20260506191559 | 56 | 277 | 5.2 | 12.2 | 0.00 | 0.00 | 0.00 | 41 | 1015.9 |
| 20260506191539 | 56 | 282 | 3.5 | 10.4 | 0.00 | 0.00 | 0.00 | 44 | 1015.9 |
| 20260506190817 | 56 | 330 | 4.3 | 9.6 | 0.00 | 0.00 | 0.00 | 44 | 1015.8 |
| 20260506190039 | 55 | 328 | 6.1 | 13.0 | 0.00 | 0.00 | 0.00 | 43 | 1015.9 |
| 20260506185800 | 55 | 318 | 7.0 | 13.0 | 0.00 | 0.00 | 0.00 | 41 | 1016.0 |
| 20260506185028 | 56 | 298 | 7.0 | 15.6 | 0.00 | 0.00 | 0.00 | 43 | 1015.9 |
| 20260506184522 | 55 | 306 | 7.8 | 15.6 | 0.00 | 0.00 | 0.00 | 43 | 1015.9 |
| 20260506184017 | 55 | 287 | 7.0 | 12.2 | 0.00 | 0.00 | 0.00 | 43 | 1015.9 |
| 20260506183510 | 55 | 329 | 7.8 | 14.8 | 0.00 | 0.00 | 0.00 | 47 | 1015.9 |
| 20260506183004 | 55 | 315 | 7.8 | 14.8 | 0.00 | 0.00 | 0.00 | 43 | 1015.9 |
| 20260506182457 | 55 | 312 | 7.0 | 12.2 | 0.00 | 0.00 | 0.00 | 40 | 1015.9 |
| 20260506181952 | 55 | 285 | 5.2 | 10.4 | 0.00 | 0.00 | 0.00 | 44 | 1015.9 |
| 20260506181446 | 55 | 327 | 5.2 | 9.6 | 0.00 | 0.00 | 0.00 | 41 | 1016.0 |
| 20260506180940 | 55 | 238 | 7.0 | 13.9 | 0.00 | 0.00 | 0.00 | 40 | 1016.0 |
| 20260506180436 | 56 | 300 | 7.0 | 13.9 | 0.00 | 0.00 | 0.00 | 44 | 1016.1 |
| 20260506175936 | 56 | 306 | 7.0 | 13.0 | 0.00 | 0.00 | 0.00 | 42 | 1016.1 |
| 20260506175436 | 56 | 304 | 5.2 | 13.0 | 0.00 | 0.00 | 0.00 | 41 | 1016.1 |
| 20260506175207 | 56 | 326 | 5.2 | 13.0 | 0.00 | 0.00 | 0.00 | 44 | 1016.1 |
| 20260506174436 | 56 | 327 | 5.2 | 9.6 | 0.00 | 0.00 | 0.00 | 45 | 1016.1 |
| 20260506173936 | 56 | 289 | 4.3 | 11.3 | 0.00 | 0.00 | 0.00 | 45 | 1016.0 |
| 20260506173440 | 56 | 306 | 5.2 | 11.3 | 0.00 | 0.00 | 0.00 | 43 | 1016.1 |
| 20260506172937 | 55 | 264 | 5.2 | 9.6 | 0.00 | 0.00 | 0.00 | 45 | 1016.2 |
| 20260506172436 | 55 | 301 | 5.2 | 11.3 | 0.00 | 0.00 | 0.00 | 42 | 1016.2 |
| 20260506172201 | 55 | 312 | 6.1 | 11.3 | 0.00 | 0.00 | 0.00 | 42 | 1016.2 |
| 20260506171436 | 55 | 321 | 5.2 | 10.4 | 0.00 | 0.00 | 0.00 | 42 | 1016.2 |
| 20260506171416 | 54 | 311 | 7.0 | 13.0 | 0.00 | 0.00 | 0.00 | 40 | 1016.2 |
| 20260506170701 | 55 | 305 | 7.0 | 13.0 | 0.00 | 0.00 | 0.00 | 40 | 1016.4 |
| 20260506165936 | 54 | 284 | 7.0 | 12.2 | 0.00 | 0.00 | 0.00 | 44 | 1016.4 |
| 20260506165436 | 54 | 299 | 7.0 | 12.2 | 0.00 | 0.00 | 0.00 | 43 | 1016.2 |
| 20260506165203 | 54 | 305 | 6.1 | 12.2 | 0.00 | 0.00 | 0.00 | 44 | 1016.2 |
| 20260506164700 | 54 | 321 | 4.3 | 10.4 | 0.00 | 0.00 | 0.00 | 45 | 1016.3 |
| 20260506163930 | 54 | 52 | 4.3 | 10.4 | 0.00 | 0.00 | 0.00 | 44 | 1016.3 |
| 20260506163648 | 54 | 61 | 5.2 | 13.0 | 0.00 | 0.00 | 0.00 | 45 | 1016.3 |
| 20260506162922 | 53 | 9 | 6.1 | 13.0 | 0.00 | 0.00 | 0.00 | 45 | 1016.3 |
| 20260506162646 | 53 | 341 | 5.2 | 10.4 | 0.00 | 0.00 | 0.00 | 45 | 1016.2 |
| 20260506161922 | 54 | 296 | 5.2 | 12.2 | 0.00 | 0.00 | 0.00 | 47 | 1016.2 |
| 20260506161653 | 53 | 325 | 7.0 | 12.2 | 0.00 | 0.00 | 0.00 | 45 | 1016.0 |
| 20260506160919 | 53 | 288 | 7.8 | 13.9 | 0.00 | 0.00 | 0.00 | 45 | 1015.9 |
| 20260506160420 | 53 | 329 | 7.0 | 13.9 | 0.00 | 0.00 | 0.00 | 42 | 1016.0 |
| 20260506155920 | 53 | 321 | 7.0 | 11.3 | 0.00 | 0.00 | 0.00 | 47 | 1015.9 |
| 20260506155425 | 53 | 336 | 7.0 | 12.2 | 0.00 | 0.00 | 0.00 | 48 | 1015.9 |
| 20260506154923 | 53 | 302 | 5.2 | 12.2 | 0.00 | 0.00 | 0.00 | 47 | 1016.0 |
| 20260506154423 | 53 | 317 | 5.2 | 10.4 | 0.00 | 0.00 | 0.00 | 47 | 1016.0 |
| 20260506153923 | 53 | 344 | 5.2 | 11.3 | 0.00 | 0.00 | 0.00 | 47 | 1015.9 |
| 20260506153422 | 53 | 333 | 5.2 | 11.3 | 0.00 | 0.00 | 0.00 | 46 | 1015.8 |
| 20260506152923 | 53 | 312 | 3.5 | 7.8 | 0.00 | 0.00 | 0.00 | 50 | 1015.8 |
| 20260506152421 | 53 | 310 | 3.5 | 7.8 | 0.00 | 0.00 | 0.00 | 49 | 1015.8 |
| 20260506151917 | 53 | 57 | 3.5 | 7.8 | 0.00 | 0.00 | 0.00 | 54 | 1015.9 |
| 20260506151417 | 52 | 47 | 3.5 | 7.0 | 0.00 | 0.00 | 0.00 | 52 | 1015.9 |
| 20260506150917 | 52 | 351 | 3.5 | 7.0 | 0.00 | 0.00 | 0.00 | 52 | 1015.8 |
| 20260506150413 | 52 | 336 | 3.5 | 9.6 | 0.00 | 0.00 | 0.00 | 51 | 1015.7 |
| 20260506145915 | 51 | 321 | 4.3 | 9.6 | 0.00 | 0.00 | 0.00 | 52 | 1015.6 |
| 20260506145413 | 51 | 319 | 3.5 | 7.0 | 0.00 | 0.00 | 0.00 | 53 | 1015.5 |
| 20260506144913 | 51 | 59 | 3.5 | 7.0 | 0.00 | 0.00 | 0.00 | 54 | 1015.6 |
| 20260506144412 | 51 | 57 | 3.5 | 7.0 | 0.00 | 0.00 | 0.00 | 56 | 1015.5 |
| 20260506143913 | 51 | 340 | 3.5 | 7.0 | 0.00 | 0.00 | 0.00 | 56 | 1015.6 |
| 20260506143411 | 50 | 325 | 3.5 | 7.0 | 0.00 | 0.00 | 0.00 | 53 | 1015.5 |
| 20260506142911 | 50 | 340 | 2.6 | 7.0 | 0.00 | 0.00 | 0.00 | 54 | 1015.5 |
| 20260506142411 | 50 | 343 | 2.6 | 5.2 | 0.00 | 0.00 | 0.00 | 57 | 1015.4 |
| 20260506141912 | 49 | 339 | 2.6 | 5.2 | 0.00 | 0.00 | 0.00 | 55 | 1015.4 |
| 20260506141412 | 49 | 36 | 3.5 | 7.0 | 0.00 | 0.00 | 0.00 | 55 | 1015.5 |
| 20260506140911 | 49 | 349 | 3.5 | 7.0 | 0.00 | 0.00 | 0.00 | 55 | 1015.4 |
| 20260506140412 | 49 | 43 | 3.5 | 7.0 | 0.00 | 0.00 | 0.00 | 61 | 1015.2 |
| 20260506135910 | 48 | 343 | 3.5 | 7.0 | 0.00 | 0.00 | 0.00 | 59 | 1015.3 |
| 20260506135409 | 48 | 330 | 3.5 | 7.8 | 0.00 | 0.00 | 0.00 | 59 | 1015.2 |
| 20260506134909 | 47 | 342 | 3.5 | 7.8 | 0.00 | 0.00 | 0.00 | 59 | 1015.1 |
| 20260506134636 | 47 | 351 | 3.5 | 7.0 | 0.00 | 0.00 | 0.00 | 61 | 1015.1 |
| 20260506133904 | 47 | 336 | 3.5 | 7.0 | 0.00 | 0.00 | 0.00 | 61 | 1015.0 |
| 20260506133357 | 47 | 55 | 3.5 | 7.0 | 0.00 | 0.00 | 0.00 | 61 | 1015.0 |
| 20260506132852 | 46 | 23 | 3.5 | 6.1 | 0.00 | 0.00 | 0.00 | 63 | 1014.9 |
| 20260506132345 | 46 | 17 | 3.5 | 7.8 | 0.00 | 0.00 | 0.00 | 64 | 1014.9 |
| 20260506131839 | 46 | 57 | 3.5 | 7.8 | 0.00 | 0.00 | 0.00 | 64 | 1014.8 |
| 20260506131333 | 45 | 31 | 3.5 | 5.2 | 0.00 | 0.00 | 0.00 | 66 | 1014.7 |
| 20260506130826 | 45 | 343 | 2.6 | 5.2 | 0.00 | 0.00 | 0.00 | 67 | 1014.7 |
| 20260506130320 | 44 | 337 | 2.6 | 4.3 | 0.00 | 0.00 | 0.00 | 68 | 1014.7 |
| 20260506125816 | 44 | 19 | 2.6 | 4.3 | 0.00 | 0.00 | 0.00 | 68 | 1014.7 |
| 20260506125528 | 44 | 355 | 1.7 | 4.3 | 0.00 | 0.00 | 0.00 | 69 | 1014.6 |
| 20260506124803 | 44 | 345 | 1.7 | 4.3 | 0.00 | 0.00 | 0.00 | 69 | 1014.6 |
| 20260506124256 | 44 | 355 | 1.7 | 4.3 | 0.00 | 0.00 | 0.00 | 69 | 1014.5 |
| 20260506123751 | 44 | 316 | 1.7 | 3.5 | 0.00 | 0.00 | 0.00 | 69 | 1014.5 |
| 20260506123244 | 44 | 315 | 1.7 | 3.5 | 0.00 | 0.00 | 0.00 | 69 | 1014.4 |
| 20260506122739 | 44 | 314 | 1.7 | 2.6 | 0.00 | 0.00 | 0.00 | 70 | 1014.5 |
| 20260506122233 | 43 | 314 | 1.7 | 2.6 | 0.00 | 0.00 | 0.00 | 69 | 1014.5 |
| 20260506121726 | 43 | 314 | 1.7 | 3.5 | 0.00 | 0.00 | 0.00 | 68 | 1014.5 |
| 20260506121222 | 43 | 314 | 1.7 | 3.5 | 0.00 | 0.00 | 0.00 | 68 | 1014.5 |
| 20260506120716 | 43 | 314 | 1.7 | 3.5 | 0.00 | 0.00 | 0.00 | 68 | 1014.5 |
| 20260506120210 | 43 | 314 | 1.7 | 3.5 | 0.00 | 0.00 | 0.00 | 68 | 1014.4 |
| 20260506115704 | 43 | 314 | 1.7 | 3.5 | 0.00 | 0.00 | 0.00 | 68 | 1014.2 |
| 20260506115156 | 43 | 313 | 1.7 | 3.5 | 0.00 | 0.00 | 0.00 | 68 | 1014.2 |
| 20260506114651 | 43 | 320 | 2.6 | 3.5 | 0.00 | 0.00 | 0.00 | 68 | 1014.1 |
| 20260506114145 | 43 | 320 | 2.6 | 3.5 | 0.00 | 0.00 | 0.00 | 68 | 1014.0 |
| 20260506113638 | 43 | 319 | 1.7 | 3.5 | 0.00 | 0.00 | 0.00 | 68 | 1013.8 |
| 20260506113133 | 43 | 319 | 0.9 | 3.5 | 0.00 | 0.00 | 0.00 | 67 | 1013.7 |
| 20260506112630 | 44 | 320 | 1.7 | 2.6 | 0.00 | 0.00 | 0.00 | 67 | 1013.7 |
| 20260506112121 | 44 | 320 | 1.7 | 3.5 | 0.00 | 0.00 | 0.00 | 67 | 1013.7 |
| 20260506111615 | 44 | 320 | 1.7 | 3.5 | 0.00 | 0.00 | 0.00 | 66 | 1013.5 |
| 20260506111109 | 44 | 320 | 1.7 | 4.3 | 0.00 | 0.00 | 0.00 | 66 | 1013.4 |
| 20260506110603 | 44 | 320 | 1.7 | 4.3 | 0.00 | 0.00 | 0.00 | 66 | 1013.3 |
| 20260506110057 | 44 | 319 | 1.7 | 3.5 | 0.00 | 0.00 | 0.00 | 66 | 1013.2 |
| 20260506105811 | 44 | 319 | 1.7 | 2.6 | 0.00 | 0.00 | 0.00 | 65 | 1013.0 |
| 20260506105045 | 44 | 319 | 1.7 | 2.6 | 0.00 | 0.00 | 0.00 | 65 | 1012.9 |
| 20260506104539 | 44 | 319 | 1.7 | 2.6 | 0.00 | 0.00 | 0.00 | 65 | 1012.7 |
| 20260506104032 | 44 | 319 | 1.7 | 3.5 | 0.00 | 0.00 | 0.00 | 65 | 1012.8 |
| 20260506103528 | 44 | 319 | 1.7 | 3.5 | 0.00 | 0.00 | 0.00 | 64 | 1012.6 |
| 20260506103021 | 45 | 319 | 1.7 | 2.6 | 0.00 | 0.00 | 0.00 | 64 | 1012.7 |
| 20260506102514 | 45 | 319 | 0.9 | 2.6 | 0.00 | 0.00 | 0.00 | 64 | 1012.8 |
| 20260506102008 | 45 | 318 | 0.9 | 2.6 | 0.00 | 0.00 | 0.00 | 63 | 1012.6 |
| 20260506101502 | 45 | 318 | 1.7 | 3.5 | 0.00 | 0.00 | 0.00 | 63 | 1012.7 |
| 20260506101216 | 45 | 318 | 1.7 | 3.5 | 0.00 | 0.00 | 0.00 | 63 | 1012.7 |
| 20260506100451 | 45 | 318 | 1.7 | 3.5 | 0.00 | 0.00 | 0.00 | 63 | 1012.6 |
| 20260506100425 | 45 | 318 | 1.7 | 5.2 | 0.00 | 0.00 | 0.00 | 63 | 1012.7 |
| 20260506095440 | 45 | 318 | 1.7 | 5.2 | 0.00 | 0.01 | 0.00 | 63 | 1012.6 |
| 20260506094932 | 45 | 316 | 2.6 | 5.2 | 0.00 | 0.01 | 0.00 | 63 | 1012.6 |
| 20260506094427 | 45 | 311 | 2.6 | 5.2 | 0.00 | 0.01 | 0.00 | 63 | 1012.6 |
| 20260506093921 | 46 | 328 | 2.6 | 4.3 | 0.00 | 0.01 | 0.00 | 63 | 1012.6 |
| 20260506093416 | 46 | 328 | 2.6 | 4.3 | 0.00 | 0.01 | 0.00 | 63 | 1012.5 |
| 20260506092910 | 46 | 328 | 2.6 | 4.3 | 0.00 | 0.02 | 0.00 | 62 | 1012.4 |
| 20260506092409 | 46 | 329 | 1.7 | 4.3 | 0.00 | 0.02 | 0.00 | 62 | 1012.4 |
| 20260506091857 | 46 | 331 | 1.7 | 4.3 | 0.00 | 0.02 | 0.00 | 62 | 1012.2 |
| 20260506091351 | 46 | 333 | 1.7 | 3.5 | 0.00 | 0.02 | 0.00 | 62 | 1012.3 |
| 20260506091114 | 46 | 333 | 1.7 | 2.6 | 0.00 | 0.02 | 0.00 | 62 | 1012.2 |
| 20260506090338 | 46 | 333 | 1.7 | 3.5 | 0.00 | 0.02 | 0.00 | 62 | 1012.1 |
| 20260506085832 | 46 | 333 | 1.7 | 4.3 | 0.00 | 0.02 | 0.00 | 61 | 1012.0 |
| 20260506085327 | 46 | 334 | 1.7 | 4.3 | 0.00 | 0.02 | 0.00 | 61 | 1011.8 |
| 20260506084821 | 46 | 333 | 1.7 | 3.5 | 0.00 | 0.02 | 0.00 | 61 | 1011.9 |
| 20260506084314 | 46 | 333 | 2.6 | 4.3 | 0.00 | 0.02 | 0.00 | 61 | 1011.8 |
| 20260506083809 | 47 | 331 | 2.6 | 4.3 | 0.00 | 0.02 | 0.00 | 61 | 1011.8 |
| 20260506083303 | 47 | 329 | 2.6 | 4.3 | 0.00 | 0.02 | 0.00 | 61 | 1011.8 |
| 20260506082757 | 47 | 330 | 1.7 | 4.3 | 0.00 | 0.02 | 0.00 | 60 | 1011.9 |
| 20260506082250 | 47 | 330 | 1.7 | 3.5 | 0.00 | 0.02 | 0.00 | 60 | 1011.9 |
| 20260506081744 | 47 | 330 | 1.7 | 3.5 | 0.00 | 0.02 | 0.00 | 60 | 1011.9 |
| 20260506081239 | 47 | 330 | 1.7 | 3.5 | 0.00 | 0.02 | 0.00 | 59 | 1012.0 |
| 20260506080732 | 47 | 330 | 1.7 | 3.5 | 0.00 | 0.02 | 0.00 | 59 | 1011.8 |
| 20260506080227 | 47 | 330 | 1.7 | 3.5 | 0.00 | 0.02 | 0.00 | 59 | 1011.9 |
| 20260506073451 | 48 | 325 | 2.6 | 4.3 | 0.00 | 0.02 | 0.00 | 59 | 1011.4 |
| 20260506072727 | 48 | 324 | 2.6 | 4.3 | 0.00 | 0.02 | 0.00 | 58 | 1011.5 |
| 20260506072503 | 48 | 323 | 2.6 | 4.3 | 0.00 | 0.02 | 0.00 | 57 | 1011.5 |